Location: Ab? ar R?sh Ba?r?
(24.1861°N, 32.8847°E)
Time: 09:52:01
(UTC+00:00)

Lacrosse 5 - Pass Details

Date: 24 October 2021
Orbit: 714 x 724 km, 57.0° (Epoch: 28 August)

Event Time Altitude Azimuth Distance (km) Brightness Sun altitude
Rises 17:16:26 0° 211° (SSW) 3,120 5.6 -28.4°
Reaches altitude 10° 17:18:48 10° 210° (SSW) 2,202 4.7 -28.9°
Enters shadow 17:21:44 35° 206° (SSW) 1,146 3.0 -29.6°
